This is the latest recevied weather packets stored in our database for station/object HA5CD-6. If no packets are shown the sender has not sent any weather packets the latest 10 day(s).
| Time | Temp. | Humidity | Pressure | Rain* | Wind** | Luminosity | Snow |
|---|---|---|---|---|---|---|---|
| 1777878135 | 26.11° C | 24% | 996 hPa | - | - | - | - |
| 1777877537 | 26.11° C | 23% | 996 hPa | - | - | - | - |
| 1777876337 | 25.56° C | 25% | 996 hPa | - | - | - | - |
| 1777875735 | 24.44° C | 26% | 996 hPa | - | - | - | - |
| 1777875139 | 25° C | 26% | 996 hPa | - | - | - | - |
| 1777873935 | 23.89° C | 27% | 996 hPa | - | - | - | - |
| 1777873334 | 24.44° C | 27% | 996 hPa | - | - | - | - |
| 1777871781 | 21.67° C | 31% | 996 hPa | - | - | - | - |
| 1777870934 | 21.67° C | 31% | 996 hPa | - | - | - | - |
| 1777869744 | 19.44° C | 35% | 996 hPa | - | - | - | - |
| 1777869133 | 19.44° C | 34% | 996 hPa | - | - | - | - |
| 1777868533 | 18.89° C | 36% | 996 hPa | - | - | - | - |
| 1777867339 | 16.11° C | 41% | 996 hPa | - | - | - | - |
| 1777866733 | 11.67° C | 53% | 996 hPa | - | - | - | - |
| 1777865538 | 10° C | 57% | 996 hPa | - | - | - | - |
| 1777864933 | 9.44° C | 57% | 996 hPa | - | - | - | - |
| 1777864341 | 10° C | 55% | 996 hPa | - | - | - | - |
| 1777863733 | 10.56° C | 53% | 996 hPa | - | - | - | - |
| 1777863132 | 11.11° C | 52% | 996 hPa | - | - | - | - |
| 1777862532 | 11.11° C | 52% | 996 hPa | - | - | - | - |
| 1777861932 | 11.11° C | 52% | 996 hPa | - | - | - | - |
| 1777861332 | 11.67° C | 51% | 996 hPa | - | - | - | - |
| 1777860732 | 11.11° C | 52% | 996 hPa | - | - | - | - |
| 1777860132 | 11.11° C | 52% | 996 hPa | - | - | - | - |
| 1777859533 | 11.67° C | 51% | 996 hPa | - | - | - | - |
* Rain since midnight (hover to see other rain measurements)
** Current wind speed in m/s (hover to see current wind gust speed)